Wind_Speed
52 52 52 52 52 53 54 55 55 55 54 53 52 50 49 48 48 47 47 47 47 47 47 47 47 46 46 46 46 46 46 46 46 46 47 47 47 48 48 48 47 47 48 49 49 49 49 49 49 49 49 48 48 47 47 47 47 47 47 46 46 45 43 45 46 45 43 38 34 35 36 37 39 39 39 39 41 42 43 45 48 49 50 50 50
54 53 53 53 54 54 55 56 56 57 56 56 55 55 53 52 51 50 49 48 48 48 48 48 48 47 47 47 47 47 47 47 48 48 49 49 49 49 49 48 48 47 48 49 49 50 50 50 50 49 49 49 48 48 47 47 47 47 47 47 46 45 44 45 46 45 43 40 37 37 38 39 41 42 42 43 44 45 47 49 51 52 52 52 51
56 55 55 54 55 55 56 56 57 57 57 57 57 57 57 56 55 53 51 50 50 50 50 49 49 49 49 48 48 48 49 49 50 50 50 50 50 50 50 49 49 49 49 49 50 51 51 51 50 49 49 49 49 48 48 47 48 47 47 48 47 45 45 46 46 46 44 42 39 39 40 41 43 44 45 45 46 48 50 52 53 54 54 53 52
57 57 56 56 56 56 57 57 58 58 58 58 58 58 58 58 57 55 54 53 52 52 52 51 51 50 50 49 49 50 50 51 51 51 52 52 52 52 51 51 51 51 51 51 52 52 52 52 51 50 49 49 49 48 48 47 48 48 48 49 47 46 47 48 47 46 45 44 42 42 42 44 45 46 47 47 49 50 52 54 55 55 54 53 53
57 57 57 57 57 58 58 59 59 59 59 59 59 59 58 58 58 56 55 54 53 53 53 53 53 52 52 51 51 52 52 52 52 52 53 53 52 53 52 52 53 52 52 52 53 54 53 52 51 50 49 49 49 48 48 48 48 48 49 49 47 47 49 49 48 47 47 45 45 44 45 46 47 48 49 49 51 53 54 56 56 55 54 53 53
57 58 58 59 59 60 60 61 61 61 61 61 60 60 58 57 57 56 55 55 54 54 54 55 55 55 54 54 54 54 53 53 54 54 54 53 53 53 53 53 54 54 54 54 54 55 54 53 51 50 50 49 49 49 49 48 49 49 50 50 49 49 50 50 49 49 48 47 46 46 47 48 49 49 50 52 53 54 56 57 56 55 54 54 54
55 56 58 59 60 62 62 62 62 62 63 63 63 62 60 58 57 55 55 55 56 56 56 56 57 57 57 56 56 56 56 56 55 55 55 55 54 55 55 55 55 55 55 55 55 54 54 52 51 50 50 49 49 50 50 50 50 50 50 51 51 51 51 51 51 50 49 48 48 48 49 50 50 51 52 54 55 56 57 57 56 54 54 54 54
51 53 56 58 60 63 64 64 64 64 64 65 65 65 63 61 59 57 57 57 58 58 58 59 59 59 59 59 58 58 58 58 58 58 57 57 57 57 57 57 57 57 56 56 55 54 53 52 51 51 51 51 51 50 50 51 52 51 51 52 52 52 52 53 53 52 50 50 49 49 50 51 52 53 54 55 56 57 57 56 54 53 54 54 54
48 49 51 54 56 59 61 63 64 64 65 66 66 67 67 66 64 63 63 63 62 62 62 61 62 62 62 61 61 60 60 61 61 61 61 60 60 60 59 59 59 58 57 56 55 53 52 52 52 53 53 52 51 51 51 52 53 52 53 53 53 54 54 54 54 53 52 51 51 50 51 52 53 54 55 56 56 57 56 55 53 52 53 54 54
51 50 50 51 53 55 56 58 59 61 62 64 65 66 68 68 68 69 69 69 69 68 67 66 65 65 65 65 64 64 64 64 64 64 64 63 62 61 61 60 59 58 57 55 54 52 52 53 54 53 52 51 51 51 52 53 53 53 54 54 54 55 56 55 55 54 54 53 52 51 51 52 54 55 56 56 56 56 55 53 52 52 53 53 54
57 56 55 54 54 54 54 54 54 55 56 58 59 61 63 64 66 67 69 70 71 71 70 69 69 69 69 69 69 68 67 67 67 66 65 64 63 62 61 60 59 58 56 54 53 53 53 53 53 52 51 51 51 52 53 54 54 54 55 55 55 56 57 57 56 55 54 54 53 53 52 52 54 55 55 55 55 55 53 52 52 52 53 53 54
61 61 60 59 58 57 57 56 54 54 54 54 55 55 56 58 59 61 63 65 67 68 69 70 71 72 72 72 71 71 69 69 68 68 67 66 65 63 62 61 59 57 55 54 54 54 54 53 53 52 51 52 53 54 54 54 55 56 55 56 57 58 58 58 57 56 54 54 54 53 52 53 53 54 54 54 54 53 52 51 52 53 54 54 53
64 65 64 64 63 62 61 60 59 57 57 56 56 55 55 56 56 57 59 60 62 63 66 69 70 72 72 72 71 70 69 68 67 67 66 66 65 64 63 62 60 58 58 57 56 56 54 53 53 52 52 52 53 54 55 56 57 57 57 57 58 59 60 59 58 56 54 54 54 52 52 53 53 53 53 54 53 53 52 52 53 54 54 54 53
67 67 67 67 67 66 66 66 65 64 63 61 60 58 58 58 58 58 59 60 61 62 63 65 67 69 70 70 70 70 69 68 67 66 66 65 65 65 64 64 63 62 61 60 59 57 55 54 53 52 52 52 53 55 56 57 58 59 58 59 60 60 61 60 59 56 54 54 53 52 52 53 53 53 53 53 52 52 52 52 53 54 54 53 53
70 70 70 70 69 69 69 69 69 70 69 68 65 63 63 62 62 61 61 61 63 64 65 65 66 67 69 69 69 69 69 70 69 69 68 68 67 66 66 66 65 65 64 63 62 61 59 57 55 54 53 53 54 55 57 58 60 60 59 60 60 61 61 60 58 56 54 53 52 52 52 52 53 52 52 52 52 52 52 53 53 53 53 53 53
69 71 71 71 71 71 71 71 71 72 73 73 72 70 69 67 66 66 63 62 62 64 66 67 67 67 68 68 68 68 68 69 70 70 70 70 70 69 69 68 68 67 67 66 65 64 62 60 58 57 55 54 55 56 57 59 60 60 60 60 60 60 60 59 57 55 54 53 52 51 52 53 53 52 51 51 51 52 52 52 53 53 53 53 53
69 70 72 72 73 72 72 72 72 72 73 74 74 73 73 72 71 70 68 65 63 63 65 67 68 68 69 70 69 69 69 70 70 71 72 72 71 71 70 70 69 69 69 68 67 65 64 62 60 58 56 56 56 58 59 60 61 61 60 60 60 60 59 58 56 55 54 52 51 51 52 53 54 53 52 52 52 52 52 52 53 53 53 53 53
71 71 72 73 74 74 74 73 72 72 72 72 73 73 73 73 73 72 70 69 68 66 65 67 69 69 69 70 70 70 70 70 70 71 71 71 70 70 69 69 68 68 67 65 64 63 62 60 58 57 56 56 58 59 60 61 61 61 60 60 60 60 59 57 56 56 54 52 52 52 53 54 54 54 53 53 53 53 52 53 54 54 54 53 53
74 73 73 74 75 75 76 76 75 73 73 72 72 73 73 73 73 73 72 71 72 71 69 69 70 71 71 71 70 70 69 69 69 69 68 68 67 66 66 66 65 64 63 62 61 61 59 58 56 55 55 56 58 59 61 61 61 61 60 60 60 59 58 58 58 56 54 52 52 52 53 54 54 54 54 53 53 53 53 53 54 54 54 53 53
76 75 75 76 76 76 77 78 78 77 76 75 74 74 73 73 73 73 74 73 74 74 73 72 73 74 74 73 72 71 70 69 68 67 65 64 64 63 63 63 62 61 60 60 60 59 58 56 55 54 55 56 58 59 61 62 62 61 60 60 59 59 59 58 57 55 53 52 52 52 53 54 55 55 54 54 53 53 53 54 54 54 54 54 54
77 78 78 78 79 78 78 78 78 78 78 78 77 76 75 75 74 73 73 74 74 75 75 74 75 76 76 75 75 73 71 69 67 65 63 62 61 61 61 60 59 59 58 57 57 56 55 55 54 54 55 56 58 59 60 61 61 61 60 59 59 59 59 58 57 55 54 52 52 53 54 55 55 54 54 54 53 53 54 54 55 54 54 54 54
75 77 78 80 81 81 81 80 79 78 79 80 81 80 80 79 78 77 76 75 75 75 74 74 75 76 77 76 76 74 72 69 66 64 62 60 59 58 58 57 57 57 56 55 54 54 54 55 55 56 56 57 58 59 60 61 61 60 60 59 59 59 59 58 57 55 54 53 52 53 55 55 54 54 54 53 53 54 54 55 55 55 55 55 55
74 75 76 78 80 82 83 83 82 81 80 79 80 81 81 81 80 79 78 77 76 75 74 73 72 74 75 75 74 73 71 68 65 63 61 59 57 56 56 56 55 55 55 54 55 55 56 56 56 56 57 58 59 59 60 61 61 60 59 59 59 60 59 58 56 55 54 53 53 54 55 54 54 53 53 53 53 54 55 55 55 55 55 56 56
77 76 77 78 79 81 83 84 85 85 83 81 79 78 79 80 80 79 78 77 76 75 74 72 71 71 71 72 71 71 70 68 66 64 62 60 58 57 56 56 55 56 56 56 58 58 58 57 57 57 58 60 61 62 62 62 62 60 59 60 60 59 59 57 56 55 54 54 54 55 55 54 54 53 53 53 54 54 55 55 55 55 56 56 57
79 79 79 79 80 81 82 83 83 84 84 83 80 78 78 79 79 80 79 79 78 76 74 73 71 70 70 70 69 69 69 68 66 65 64 63 62 60 58 57 57 57 58 59 59 59 58 57 56 57 59 60 61 62 62 63 62 61 61 61 61 59 58 57 56 55 55 55 55 55 55 55 54 54 53 53 54 54 55 55 55 56 56 56 57
74 75 77 78 80 81 81 81 80 79 80 80 80 78 77 76 76 77 78 78 79 78 77 75 73 71 70 70 69 70 70 69 68 67 66 66 65 64 62 61 60 59 60 60 60 58 56 55 56 57 59 61 61 61 61 62 62 61 61 61 61 60 58 57 56 56 56 56 55 55 56 55 55 54 54 54 54 55 55 55 55 56 56 57 58
63 64 66 69 72 74 75 75 74 73 71 71 71 72 71 70 70 71 72 73 75 77 77 77 75 73 72 71 71 71 71 70 69 68 68 68 68 67 66 65 63 62 62 61 60 58 56 55 56 58 60 61 61 61 61 61 60 59 58 58 58 58 57 56 57 57 57 57 56 56 56 56 55 54 54 54 55 55 55 55 55 56 57 58 59
52 53 56 58 60 63 65 66 67 66 65 64 63 63 63 63 63 64 66 68 70 73 75 76 76 75 73 72 72 72 71 71 70 69 69 71 71 71 71 69 66 64 63 61 59 58 57 57 58 59 61 61 61 61 61 60 60 58 57 56 56 57 57 57 58 58 57 57 57 57 57 56 55 55 55 55 55 55 55 55 56 57 58 59 60
46 47 49 51 53 55 57 58 59 61 61 61 61 60 60 59 59 60 63 66 68 70 72 74 75 76 75 74 74 73 73 72 71 71 71 72 72 72 72 70 68 67 66 63 61 60 59 59 60 61 61 61 61 61 61 61 60 59 58 57 57 57 58 58 58 58 58 58 58 58 57 56 56 56 56 56 55 55 55 56 57 58 59 60 61
46 47 48 49 50 52 53 54 55 56 57 58 58 59 60 61 60 59 60 62 65 68 70 71 73 76 76 75 75 75 75 74 72 72 72 72 71 71 70 69 69 70 70 68 65 63 61 61 62 62 62 62 62 62 62 63 62 61 60 59 58 58 59 59 58 58 59 59 59 58 57 57 56 56 56 56 56 55 56 57 58 59 60 61 61
47 48 49 49 50 51 52 53 54 55 55 55 55 55 56 58 60 61 61 61 63 66 67 66 67 70 74 76 76 76 76 75 74 73 73 74 73 71 69 69 70 72 72 70 68 65 65 65 64 63 63 62 62 61 62 63 63 62 61 60 59 59 59 59 58 59 59 59 59 59 58 57 57 57 57 57 56 56 56 57 58 60 60 61 62
48 48 48 49 49 49 50 52 53 54 55 55 55 54 53 54 56 59 60 61 62 65 66 65 61 60 62 68 73 75 76 76 75 74 75 75 74 72 71 70 71 72 72 71 70 68 67 67 66 64 63 62 61 61 62 62 62 61 60 59 59 59 59 58 58 59 60 60 60 59 58 57 58 58 58 57 56 56 57 58 59 59 60 61 61
48 49 49 49 49 49 49 50 51 52 53 54 55 55 54 53 53 55 57 60 62 65 67 68 66 62 58 58 61 66 71 74 75 75 75 74 71 69 69 69 68 67 67 68 69 69 69 69 68 66 64 63 61 61 61 61 60 59 59 59 59 58 58 58 59 59 60 60 60 59 58 58 58 58 58 57 56 56 57 57 58 59 59 60 60
48 49 49 49 49 49 49 48 49 50 51 52 53 54 54 54 54 54 54 56 58 61 65 67 69 68 65 60 56 56 60 65 69 72 74 74 72 70 68 68 67 66 65 66 68 69 69 69 68 66 64 63 62 61 61 60 59 59 59 59 58 58 57 58 58 59 60 60 59 58 58 58 59 58 58 57 56 56 57 57 58 58 58 59 60
49 49 50 50 50 50 49 48 48 49 49 50 51 52 53 54 54 55 55 54 55 57 59 62 64 66 67 66 63 58 56 57 60 64 67 69 71 71 71 70 69 68 67 67 67 68 67 67 66 64 63 62 62 62 62 61 60 60 59 59 58 57 57 57 58 58 59 59 59 58 58 59 59 58 57 57 56 56 57 57 57 57 58 59 60
52 52 53 53 53 53 52 51 50 50 50 50 50 51 51 51 52 54 55 56 56 55 56 58 60 61 63 65 66 65 62 59 58 59 61 64 67 69 69 69 69 69 67 65 64 65 66 65 65 64 64 63 63 63 63 61 60 60 60 58 57 57 56 57 57 58 58 58 58 58 59 59 59 58 57 56 56 56 57 57 57 57 57 58 59
56 56 56 57 57 57 57 56 56 55 54 53 53 52 52 51 52 52 53 54 56 57 57 58 58 59 60 62 64 65 65 64 61 59 58 60 63 65 67 67 67 67 65 63 62 64 65 66 65 65 64 65 64 64 62 61 61 61 59 58 57 57 56 56 56 57 58 58 58 59 59 59 58 57 56 56 56 56 56 56 56 56 57 58 59
60 60 60 60 60 61 61 61 61 61 60 59 58 57 56 55 54 54 54 54 54 56 57 58 59 60 60 61 62 63 64 64 63 61 58 57 58 59 62 63 64 65 64 62 61 62 64 66 66 66 66 66 65 64 63 62 61 60 59 58 57 56 56 56 56 56 57 58 58 59 59 59 58 57 56 56 56 56 56 55 55 56 57 58 59
64 64 64 64 65 65 66 66 66 66 66 65 65 64 62 60 59 59 58 58 57 57 57 58 59 61 62 63 64 65 64 63 63 62 60 59 57 57 58 59 61 62 63 63 62 62 63 64 65 65 66 66 66 66 65 63 62 61 60 59 57 56 55 55 55 56 57 58 58 59 59 58 57 57 56 55 55 55 55 55 56 57 58 59 60
67 67 68 69 69 70 70 71 71 71 71 71 71 70 69 67 66 65 64 63 62 61 60 60 61 62 63 64 65 66 66 64 63 62 61 60 58 57 57 57 57 59 61 62 63 63 64 64 64 64 65 66 67 67 66 64 63 62 60 58 57 56 56 56 55 56 56 58 59 59 59 58 57 56 55 55 55 55 55 56 57 58 58 59 60
73 73 73 73 74 74 75 75 75 75 75 75 75 75 75 74 73 72 70 68 66 65 64 63 64 64 65 66 67 67 67 65 64 63 62 61 60 59 58 57 56 57 58 61 63 65 65 65 63 63 64 65 66 66 66 65 64 62 60 58 57 57 56 56 55 55 56 58 59 59 58 58 56 55 55 55 55 55 56 57 58 58 58 59 60
78 78 78 78 78 79 79 79 79 79 79 79 79 79 80 79 78 77 76 74 72 70 68 67 67 67 68 69 69 70 69 68 66 64 63 62 62 61 60 59 58 57 57 60 62 64 64 64 64 64 64 65 66 66 66 65 63 61 59 58 57 57 56 55 54 55 57 58 59 59 58 57 56 55 55 56 56 56 57 58 58 59 59 60 61
82 82 82 82 82 83 83 83 83 83 83 83 83 83 83 83 83 82 81 80 79 77 75 73 72 71 71 72 71 71 71 71 69 67 65 64 63 62 62 61 60 59 58 59 62 64 64 63 63 64 65 66 67 67 66 64 62 60 58 58 57 57 56 54 54 56 58 59 59 58 57 56 55 55 56 57 57 57 58 59 59 59 60 61 62
85 85 86 86 86 86 87 87 87 87 87 87 87 87 87 87 86 86 86 85 84 83 81 80 78 76 75 74 74 73 73 73 72 70 68 66 64 63 63 63 62 61 60 59 60 63 64 64 64 65 66 67 67 65 63 61 59 58 57 57 57 56 55 54 55 58 59 59 59 57 56 56 56 57 57 58 58 59 60 60 60 60 61 63 66
89 89 89 89 90 90 90 90 90 90 90 90 90 90 90 90 89 89 89 89 88 88 87 85 84 81 78 76 75 75 75 74 74 73 71 69 67 65 64 64 64 63 62 61 60 60 62 63 63 64 64 63 62 60 58 57 57 57 57 57 56 56 56 56 58 59 59 59 58 57 57 57 57 58 58 59 59 60 61 61 61 63 64 67 69
92 92 92 93 93 93 93 93 93 93 93 93 93 93 93 93 93 93 93 92 92 92 91 90 88 86 83 79 76 76 76 76 76 76 74 72 69 67 65 64 65 65 64 63 62 61 61 60 60 60 59 58 57 57 57 57 57 57 57 57 57 57 58 59 59 59 58 57 57 57 58 58 59 59 60 60 61 61 62 62 63 65 67 69 71
95 96 96 96 96 97 97 97 97 97 98 98 98 97 97 97 97 96 96 96 96 95 94 93 92 90 87 83 79 77 76 76 77 77 76 74 71 68 66 65 65 66 66 65 64 64 63 62 60 59 58 58 57 57 57 57 57 57 58 58 58 59 59 59 59 58 57 57 57 58 59 60 61 61 62 62 63 63 64 65 67 68 69 71 73
100 101 101 101 101 101 102 102 102 102 102 102 102 102 101 101 100 100 99 99 99 98 96 95 95 93 90 87 82 79 77 76 76 77 77 75 72 69 68 66 65 66 67 67 67 66 65 64 62 61 60 59 58 58 58 58 58 59 59 59 59 59 59 58 57 57 57 58 59 60 61 62 63 63 64 64 65 66 68 69 70 71 72 73 75
103 103 103 103 103 103 104 104 104 105 105 106 106 105 105 104 103 102 101 101 101 100 99 99 98 97 94 91 86 80 77 75 75 75 76 76 73 70 68 68 67 67 68 69 70 69 68 66 64 63 62 61 60 60 59 59 59 60 60 59 59 58 58 57 57 58 59 60 61 63 64 64 65 66 66 67 69 70 71 72 72 72 74 75 76
87 87 88 88 88 88 89 89 90 91 93 95 96 98 99 99 99 98 98 97 97 96 96 96 95 94 92 89 84 78 74 73 73 73 74 75 73 70 67 67 68 68 68 69 71 72 72 70 67 66 65 64 62 61 61 60 60 60 59 59 58 58 58 58 59 60 61 63 64 65 66 67 68 69 70 71 73 73 73 73 73 74 75 76 77
64 63 63 63 64 64 65 66 67 68 69 71 73 74 76 78 79 80 80 79 79 80 80 81 81 80 79 76 74 71 70 69 70 70 71 72 72 70 68 68 68 68 68 69 71 73 73 72 70 69 67 66 64 63 62 61 61 60 59 59 58 59 59 60 61 63 64 65 67 68 69 70 72 73 74 75 75 75 74 74 74 75 76 77 77
Wind_Direction
258 259 260 260 261 261 262 262 263 264 265 266 266 266 266 266 267 267 268 270 272 273 275 276 277 278 278 278 277 277 277 277 278 280 281 282 283 283 283 282 282 281 281 282 282 282 282 282 282 284 285 286 286 285 285 286 288 290 292 293 294 295 295 297 301 300 293 286 276 265 262 264 265 267 270 272 275 277 279 281 284 287 288 290 292
258 258 258 258 259 259 260 261 262 263 264 265 265 266 266 266 266 267 268 270 272 273 274 276 277 278 278 278 277 277 277 277 279 280 281 282 282 282 282 282 281 281 281 281 281 281 280 281 282 284 284 285 285 284 284 286 287 290 291 292 293 293 293 295 298 298 291 285 278 267 262 263 264 266 268 270 272 275 277 279 282 286 288 291 293
257 257 257 257 257 258 259 260 261 262 263 264 264 265 265 265 266 267 268 269 271 273 274 275 276 277 277 278 278 277 277 277 278 279 280 280 281 281 281 280 280 280 280 280 279 279 279 280 282 283 283 283 284 283 284 285 287 289 290 291 292 292 291 292 295 295 289 283 279 270 264 264 264 266 268 269 272 274 276 279 282 285 289 292 294
257 257 257 257 257 258 258 259 259 260 261 262 263 263 264 265 265 266 267 268 270 271 273 274 275 276 276 277 277 276 276 276 277 278 278 279 279 280 279 279 279 280 280 279 279 279 279 280 281 281 281 282 283 284 284 285 286 289 289 290 290 290 290 290 292 292 288 282 279 273 267 266 266 267 268 270 272 274 277 279 282 285 290 293 296
257 257 257 257 257 257 257 257 258 259 259 260 261 262 262 263 264 265 266 267 269 270 272 273 274 274 275 276 276 275 276 276 276 277 278 278 278 279 278 278 278 279 279 279 278 278 279 280 280 281 281 283 285 284 284 284 286 288 289 289 289 289 289 289 290 290 287 282 279 275 270 268 268 269 271 273 275 276 278 281 283 288 292 295 298
258 258 258 258 258 258 257 257 257 258 258 259 259 260 261 261 262 264 265 267 268 270 271 273 273 274 275 275 276 276 276 277 277 277 278 278 278 278 278 277 277 278 278 278 278 279 279 280 281 282 283 285 285 284 284 285 286 287 288 287 287 288 288 288 287 287 286 282 279 276 273 271 272 274 276 277 277 279 281 284 288 292 294 297 300
260 260 260 260 260 260 259 258 258 258 258 258 258 259 259 260 262 263 266 268 269 271 272 273 274 274 275 275 276 276 277 277 278 278 278 278 277 277 277 277 277 277 277 278 278 279 280 281 282 284 285 286 285 284 284 284 285 286 286 286 286 286 287 287 286 285 284 282 279 277 275 274 275 277 278 278 279 281 284 287 292 295 297 299 300
261 261 262 262 262 262 262 261 261 260 259 259 259 259 259 260 261 263 266 269 271 272 273 274 274 275 275 275 275 276 276 277 277 278 277 277 277 277 277 277 277 277 277 278 279 280 281 282 284 284 285 284 283 283 284 283 284 285 285 285 285 284 285 285 285 283 282 281 280 279 277 277 278 278 279 279 281 283 286 290 294 296 298 299 299
264 263 264 264 264 264 264 264 264 263 262 261 261 260 261 262 263 265 267 269 271 272 273 273 274 274 275 275 275 275 275 276 276 276 276 276 276 276 276 277 277 278 279 280 281 282 282 283 284 284 284 283 282 282 282 282 283 284 284 284 283 283 284 284 284 283 282 281 281 280 279 279 279 280 280 281 283 285 289 292 295 296 297 298 298
268 267 267 267 267 267 267 268 268 268 267 267 265 264 264 265 265 267 269 271 272 273 273 272 272 272 272 272 273 273 274 275 275 275 275 275 275 275 276 277 278 279 280 281 282 282 283 283 284 283 283 282 282 281 281 281 281 282 283 283 282 281 282 283 283 283 282 282 282 282 281 281 281 282 283 284 286 288 291 293 295 295 296 296 297
270 270 270 269 269 269 269 270 270 271 271 271 271 270 269 269 268 269 269 270 271 272 272 271 270 269 269 270 271 272 274 275 276 276 277 277 277 277 278 278 279 280 281 282 282 282 282 283 283 282 282 282 281 280 279 279 280 281 281 281 280 280 281 282 282 282 283 283 283 283 284 284 284 285 286 288 289 290 292 293 294 294 295 295 297
269 270 271 271 270 269 269 269 270 271 272 272 273 273 273 273 273 272 271 271 270 270 270 269 269 269 269 270 272 273 274 276 277 278 279 280 280 280 280 281 281 282 282 282 282 283 283 283 282 282 282 282 280 279 279 279 280 279 279 278 278 279 280 281 281 282 283 283 283 284 284 285 286 287 288 289 290 291 293 293 293 294 294 296 297
265 267 268 269 270 270 270 269 269 270 271 271 271 272 273 273 274 275 275 275 274 273 272 271 270 271 271 272 273 274 275 276 278 279 280 281 281 282 282 282 283 283 283 284 284 283 283 282 282 283 282 281 280 279 279 279 279 279 278 277 277 278 279 281 282 283 284 284 284 283 284 285 286 287 288 289 291 292 293 293 293 293 295 296 298
262 262 263 264 266 267 269 270 270 270 270 269 269 269 270 271 271 272 274 276 277 277 275 274 274 274 274 274 275 275 276 278 279 280 281 282 282 282 282 283 283 283 284 284 284 284 283 283 283 283 282 281 280 279 279 279 278 278 278 277 277 277 278 280 283 284 285 285 284 282 283 285 286 287 288 290 292 292 292 292 292 293 295 297 299
261 261 261 261 262 262 264 266 268 269 269 269 269 268 267 267 268 268 269 271 273 276 276 276 275 276 276 276 277 277 279 280 281 281 282 282 283 283 284 284 284 285 285 285 285 285 284 284 283 283 282 281 279 278 278 278 277 277 277 276 276 277 278 280 283 285 286 285 283 282 283 284 285 287 288 289 290 290 290 290 291 293 295 297 299
261 262 261 261 261 261 261 263 264 265 267 269 269 269 267 266 267 267 267 267 268 270 272 273 274 274 275 276 277 278 280 281 281 282 282 283 283 284 285 285 285 285 285 285 285 285 285 285 284 283 282 279 277 277 277 277 276 276 276 275 275 276 277 279 282 284 284 283 281 281 282 284 286 287 287 287 287 288 288 289 291 293 295 297 299
260 261 262 262 262 262 262 262 263 263 265 266 268 267 267 266 266 266 266 266 265 264 266 269 270 271 272 273 274 276 277 279 280 281 281 282 282 283 283 284 284 284 284 285 285 285 285 285 284 283 281 278 276 275 275 275 275 274 274 274 275 275 275 278 280 282 283 282 281 280 282 284 286 286 285 285 286 287 289 290 292 293 295 297 299
258 259 261 263 264 263 263 263 263 263 264 265 266 265 265 264 264 264 264 264 263 261 261 263 266 267 268 269 271 272 274 276 277 278 279 280 281 282 282 283 283 283 284 284 285 285 286 285 284 282 279 276 274 274 274 273 274 274 274 274 274 274 274 276 279 281 283 283 281 280 282 284 285 285 285 285 287 288 290 291 292 294 296 298 299
259 258 259 260 262 264 264 264 264 264 264 265 265 265 265 265 265 265 264 264 263 262 260 261 263 264 265 267 269 270 272 274 276 277 279 280 280 281 281 282 283 283 284 284 285 285 285 285 283 281 277 274 273 272 273 273 273 274 274 274 274 274 274 276 279 282 284 283 281 280 282 283 284 284 285 286 287 289 290 291 293 294 296 298 300
260 260 259 259 260 261 263 264 265 266 266 266 266 266 266 267 267 267 266 265 265 264 262 261 262 264 265 266 268 270 272 274 277 279 280 281 282 282 282 283 283 283 283 284 284 284 284 283 281 278 275 273 272 272 272 273 274 274 275 275 274 273 273 276 280 283 283 281 280 280 281 283 284 285 285 287 288 289 290 292 293 295 297 300 301
259 259 260 260 260 260 260 261 262 264 266 267 267 268 268 269 269 269 268 268 267 266 265 264 264 265 265 266 267 269 272 274 277 279 281 282 283 283 284 284 283 282 282 282 282 283 282 281 278 276 274 272 272 272 273 274 274 275 276 275 274 273 274 277 280 282 282 281 280 280 281 283 285 286 287 288 289 290 291 292 294 296 299 301 302
258 258 259 260 261 262 262 262 261 262 263 265 266 267 268 268 268 269 269 269 269 269 268 266 265 266 266 267 267 269 272 274 276 278 280 282 283 284 284 283 282 280 280 280 280 280 280 278 277 274 273 272 272 273 274 275 276 276 276 275 274 273 275 277 280 281 281 281 280 280 282 284 286 286 287 288 289 290 291 293 295 298 300 301 303
259 258 259 260 261 262 263 264 264 263 263 263 263 264 264 264 265 265 266 267 268 268 268 267 265 265 266 267 268 269 271 273 275 277 279 281 282 283 283 281 279 278 278 279 279 279 277 276 274 273 272 273 273 273 273 274 275 275 275 275 273 273 274 277 279 280 281 280 280 280 282 285 286 287 288 289 290 291 292 294 296 298 300 302 304
259 259 258 259 260 261 262 264 265 265 264 263 262 261 261 261 261 262 263 264 265 266 266 265 264 263 264 265 267 268 269 271 273 275 277 279 280 280 279 278 277 277 277 278 278 277 275 274 273 273 273 274 274 273 273 273 273 274 274 273 272 272 274 276 279 280 280 279 280 281 283 285 286 287 288 289 290 292 293 295 297 299 301 303 303
260 259 259 258 259 260 261 262 264 265 266 266 264 262 260 259 259 259 260 262 263 264 264 263 262 262 262 262 264 266 267 268 270 272 274 275 276 276 275 275 275 276 276 276 275 274 274 273 273 273 274 275 275 275 275 274 273 273 273 272 272 272 274 276 278 279 279 280 280 282 283 285 285 287 288 290 291 292 294 296 297 299 301 302 302
262 261 260 260 259 260 261 262 264 266 267 268 268 268 266 264 261 260 260 261 262 262 263 263 262 261 261 261 262 263 265 266 268 269 270 271 272 273 273 273 273 273 273 273 273 272 272 271 271 272 274 275 275 275 275 275 274 274 274 274 273 274 274 276 277 278 279 280 281 281 282 283 285 287 288 289 291 293 294 296 297 299 300 300 301
263 263 263 262 262 262 263 265 266 268 269 271 271 271 271 270 268 266 264 263 262 262 262 262 262 262 261 261 261 262 263 264 265 267 268 270 270 271 271 271 270 270 270 271 271 270 269 269 269 271 272 273 274 274 275 275 275 275 275 274 274 274 274 275 277 278 279 280 280 280 281 283 284 286 287 289 291 292 294 295 297 298 299 300 300
265 266 267 267 268 268 268 269 270 271 272 273 274 274 273 272 271 269 267 265 264 263 263 262 262 262 261 260 261 261 261 262 263 265 266 267 268 268 268 269 268 268 269 271 270 268 267 268 269 271 271 272 273 273 274 274 274 274 274 273 273 273 273 274 276 278 279 279 279 279 280 282 283 285 287 289 290 292 294 296 297 298 298 299 300
268 268 269 271 272 273 274 274 275 275 275 275 275 274 274 273 271 270 267 266 265 264 263 262 262 262 261 261 260 260 260 260 261 262 265 266 266 266 266 267 267 266 268 270 270 269 268 269 269 270 270 271 271 272 273 273 272 272 272 272 271 271 272 274 276 277 277 278 278 279 280 281 283 285 287 288 290 292 294 296 297 297 298 299 300
268 268 269 269 270 272 274 275 276 276 276 276 275 273 272 272 272 271 269 267 266 265 264 263 262 262 262 261 261 261 261 260 260 261 264 266 266 266 265 265 264 264 266 268 269 269 269 269 269 268 268 269 270 271 272 273 272 272 272 271 270 270 272 273 274 275 276 277 277 278 279 281 283 285 287 288 289 292 294 295 296 297 298 299 300
268 268 269 269 270 270 271 272 273 274 274 274 274 273 271 270 270 271 271 269 267 266 266 266 266 265 263 262 262 262 262 261 261 261 263 266 267 268 267 264 262 261 263 266 268 268 269 269 268 267 267 268 270 271 272 272 272 272 272 271 270 270 271 272 273 274 275 276 277 278 280 281 283 284 286 287 289 291 294 295 296 297 298 299 300
269 269 270 270 270 270 271 271 272 273 273 273 272 272 271 270 269 270 271 271 270 269 268 269 270 271 269 266 264 263 263 263 262 262 263 264 266 266 265 263 261 261 262 265 267 268 268 268 268 267 267 268 269 270 271 271 271 271 271 270 270 269 270 271 272 273 274 275 276 278 279 281 282 283 284 286 289 291 293 294 295 297 298 299 299
271 270 271 271 271 271 271 271 271 272 273 274 273 272 271 270 268 268 269 270 270 271 271 271 272 273 273 271 268 266 264 264 263 263 264 264 265 266 266 265 264 264 265 267 267 267 267 268 268 267 267 267 267 268 269 270 270 270 269 268 268 268 269 270 271 272 273 274 276 277 278 279 281 282 284 286 288 290 291 293 295 296 297 298 299
270 270 270 271 271 271 271 271 271 271 273 274 274 274 273 272 270 269 268 268 268 269 270 271 272 272 273 273 272 271 269 267 265 264 264 264 265 266 267 267 268 269 271 270 268 265 265 265 265 265 265 265 264 265 266 268 269 269 268 267 267 267 268 269 270 271 272 273 275 276 277 278 280 281 283 286 288 289 291 293 294 296 296 297 299
268 269 269 270 270 271 271 271 271 271 272 273 274 275 276 275 273 272 270 269 268 267 268 270 271 272 273 273 272 273 273 273 270 267 266 265 265 265 265 266 267 269 271 270 268 265 264 264 264 264 264 263 262 263 265 267 269 269 268 268 267 267 267 268 269 270 271 273 275 276 276 278 279 281 283 285 287 289 291 292 294 295 296 297 298
269 269 270 271 271 272 272 272 272 272 272 273 274 275 276 276 276 275 274 273 271 270 269 269 270 271 272 272 273 272 272 273 273 271 268 267 266 266 266 266 266 267 268 268 267 266 266 266 266 265 264 263 262 263 265 266 267 268 268 268 267 267 267 267 268 270 271 273 274 275 276 278 279 280 282 285 287 289 290 292 293 294 295 297 298
271 271 272 273 273 274 274 274 274 274 274 274 275 275 276 276 277 278 277 277 276 274 273 272 272 273 272 272 272 272 271 271 272 273 272 269 267 266 267 267 267 268 268 267 264 264 265 267 267 266 264 263 263 264 264 265 266 267 267 267 267 266 266 267 268 269 271 272 273 274 276 277 278 280 282 285 287 289 290 292 293 294 295 296 297
273 274 275 275 276 276 276 276 276 276 276 276 275 275 276 276 277 278 278 278 278 278 277 276 276 275 275 273 272 271 271 270 271 273 274 273 270 268 267 267 267 268 268 267 264 263 264 266 267 266 265 264 263 264 263 264 264 265 265 266 266 266 266 267 268 270 271 272 273 274 275 276 277 280 283 285 287 289 290 291 292 293 294 295 296
274 275 276 277 277 278 278 278 278 278 278 277 277 276 276 276 276 277 277 277 278 278 279 278 278 278 277 276 274 272 271 270 270 271 273 274 274 272 270 268 267 267 268 267 265 263 263 264 266 266 265 264 263 262 262 262 263 263 265 266 266 266 266 267 268 270 271 272 273 274 274 275 278 281 284 286 287 288 289 290 291 292 293 293 294
274 275 276 277 277 278 278 278 278 278 279 279 278 278 277 276 276 276 276 276 277 278 279 279 279 279 279 278 277 275 272 271 270 271 272 273 274 274 273 271 269 268 268 268 266 264 262 262 262 262 263 264 263 262 261 261 262 263 264 265 265 265 265 266 268 270 271 272 272 273 273 275 279 282 284 285 286 287 288 289 290 290 291 292 294
273 273 274 275 275 276 277 277 278 278 278 278 279 278 278 277 277 276 276 276 277 278 279 281 281 281 280 279 278 277 275 273 271 270 271 271 272 272 273 273 272 271 271 270 268 266 264 263 261 261 262 263 264 262 261 261 262 263 264 265 265 265 266 268 270 271 271 271 271 272 274 277 280 282 283 283 284 285 286 287 288 289 290 291 293
271 272 272 273 273 274 275 275 276 277 277 278 278 279 279 279 279 279 279 279 279 279 279 281 282 283 282 280 278 277 276 275 273 271 270 270 271 271 272 272 273 273 273 271 270 268 266 264 262 261 261 262 263 262 261 262 263 264 264 265 265 266 267 269 271 271 270 270 270 272 274 278 279 280 281 282 283 284 285 286 287 287 289 291 292
269 270 271 271 271 272 273 273 274 275 276 277 277 278 279 280 280 280 281 281 281 280 280 280 282 283 283 281 279 277 275 274 274 272 271 270 270 270 270 271 272 272 273 272 270 267 265 264 262 261 261 261 262 262 262 262 264 264 265 265 266 267 269 270 270 269 268 269 270 272 275 277 278 278 279 280 281 282 284 285 285 286 288 290 292
269 270 270 270 271 271 272 272 273 273 274 275 276 277 277 278 279 280 280 281 281 282 282 282 282 283 283 281 279 277 275 273 272 272 271 270 269 269 269 270 271 272 273 272 271 268 265 263 262 261 260 260 261 261 262 262 263 264 265 266 268 269 270 270 268 267 267 269 271 273 275 275 276 277 278 279 280 282 284 285 285 285 287 289 291
269 270 270 270 271 271 271 272 272 273 273 274 274 275 276 277 278 279 279 280 281 281 282 282 283 283 282 281 279 277 275 273 271 270 270 269 269 268 268 268 269 271 272 273 273 271 268 265 263 261 260 260 260 261 261 262 263 264 266 267 269 269 268 267 266 266 267 269 271 273 273 274 275 276 278 279 280 282 284 285 285 286 287 289 291
269 270 270 270 271 271 271 271 272 272 272 273 273 274 275 276 277 277 278 279 279 280 281 281 282 282 281 280 278 276 274 273 271 269 269 268 268 268 267 267 268 269 271 273 274 274 272 269 267 265 263 262 262 262 262 263 265 266 267 267 267 266 265 265 265 266 268 270 271 272 272 273 274 276 277 278 280 282 284 285 286 287 289 290 292
270 270 270 271 271 271 271 272 272 272 273 273 273 274 274 275 275 276 277 277 278 278 279 280 280 280 280 279 277 275 273 271 269 268 267 267 267 267 266 267 267 268 270 272 273 274 273 272 270 268 267 265 265 265 265 265 265 265 265 264 263 263 263 263 264 266 268 269 270 270 271 272 273 274 276 278 279 281 283 284 285 287 289 291 292
269 270 270 270 270 270 271 271 271 271 271 272 272 272 273 273 274 274 275 276 276 277 277 278 278 279 279 278 277 274 271 268 267 266 265 265 265 265 265 266 267 268 269 269 270 271 272 272 270 270 269 268 267 266 265 264 263 262 261 261 260 261 262 263 265 266 267 268 269 269 270 271 272 274 275 277 279 280 281 283 285 287 289 291 292
270 270 270 270 270 270 270 269 269 269 268 269 269 269 269 270 270 271 271 272 273 274 275 275 276 277 277 277 276 273 269 265 264 264 263 263 263 264 264 263 264 266 268 268 268 269 270 270 270 269 268 268 266 265 263 261 260 259 259 259 259 261 262 264 265 266 266 267 267 268 269 270 272 273 275 277 278 279 281 283 285 287 289 291 292
271 271 271 271 271 270 270 270 269 269 268 268 267 267 267 268 268 268 269 269 270 271 272 272 273 274 274 274 273 269 264 261 260 261 261 261 261 261 262 262 263 264 266 267 267 266 266 266 266 266 265 265 263 261 259 258 257 257 258 259 260 261 262 263 264 264 265 266 267 268 269 270 271 273 274 276 277 279 281 283 285 287 289 291 292
271 271 272 272 272 273 273 273 272 272 271 270 270 269 268 268 268 268 268 268 268 269 269 269 269 269 268 267 266 262 257 255 256 258 258 258 259 259 260 262 263 264 265 265 265 263 262 262 262 262 261 260 259 258 257 256 256 256 258 259 260 261 261 262 263 263 264 265 266 268 269 270 271 272 274 275 277 279 281 283 285 287 289 290 292
Height
5772 5773 5774 5775 5775 5775 5775 5775 5775 5775 5775 5775 5775 5775 5774 5773 5773 5772 5772 5771 5771 5771 5770 5770 5769 5769 5768 5767 5766 5765 5765 5764 5764 5763 5763 5762 5762 5761 5760 5759 5759 5758 5757 5755 5754 5753 5752 5751 5750 5749 5747 5746 5744 5743 5741 5740 5738 5737 5735 5734 5732 5731 5728 5726 5725 5724 5722 5721 5719 5717 5715 5713 5710 5708 5706 5704 5702 5700 5698 5696 5693 5691 5689 5686 5684
5765 5766 5768 5768 5769 5769 5769 5769 5769 5769 5769 5769 5769 5769 5768 5768 5767 5767 5767 5766 5766 5765 5765 5765 5764 5763 5763 5762 5761 5761 5760 5759 5759 5759 5758 5757 5756 5755 5755 5754 5753 5753 5752 5750 5749 5747 5746 5746 5745 5743 5741 5740 5739 5737 5736 5735 5734 5732 5730 5728 5727 5725 5723 5721 5719 5719 5717 5715 5714 5712 5711 5708 5705 5703 5701 5699 5697 5695 5692 5690 5688 5685 5683 5681 5679
5759 5760 5761 5762 5762 5762 5763 5763 5763 5763 5763 5763 5763 5763 5762 5762 5762 5761 5762 5761 5760 5760 5760 5759 5759 5758 5757 5757 5756 5756 5755 5754 5753 5753 5752 5752 5751 5750 5749 5748 5748 5747 5746 5745 5743 5742 5741 5740 5739 5738 5736 5735 5734 5732 5732 5730 5729 5727 5725 5723 5722 5720 5718 5715 5714 5713 5712 5710 5708 5707 5705 5703 5700 5698 5696 5694 5692 5689 5687 5685 5683 5680 5678 5677 5674
5753 5754 5755 5755 5756 5756 5756 5756 5756 5757 5757 5757 5757 5756 5756 5756 5756 5756 5756 5755 5755 5754 5754 5754 5753 5753 5752 5752 5751 5750 5749 5748 5748 5747 5746 5746 5745 5744 5744 5743 5742 5741 5740 5739 5738 5736 5735 5734 5733 5732 5730 5729 5729 5727 5726 5725 5723 5722 5720 5718 5717 5715 5712 5710 5709 5708 5706 5704 5703 5701 5699 5697 5695 5692 5691 5689 5687 5685 5682 5680 5678 5676 5674 5672 5670
5747 5748 5749 5749 5750 5750 5749 5749 5749 5750 5750 5750 5750 5750 5750 5750 5750 5750 5749 5749 5749 5749 5748 5748 5747 5747 5747 5746 5745 5743 5743 5742 5742 5741 5740 5740 5739 5738 5738 5737 5736 5735 5734 5733 5731 5730 5729 5729 5728 5726 5725 5724 5723 5722 5721 5719 5718 5716 5715 5713 5712 5709 5707 5705 5703 5702 5700 5699 5697 5695 5693 5691 5689 5687 5686 5684 5682 5679 5677 5675 5673 5671 5670 5667 5665
5740 5741 5742 5743 5743 5743 5743 5743 5743 5743 5743 5743 5744 5744 5744 5744 5744 5744 5743 5743 5743 5743 5743 5742 5741 5741 5741 5740 5739 5738 5737 5736 5735 5735 5734 5733 5733 5732 5731 5730 5729 5728 5727 5726 5725 5723 5723 5723 5722 5720 5719 5719 5718 5716 5715 5714 5712 5711 5709 5707 5706 5703 5701 5699 5698 5696 5694 5693 5691 5690 5688 5686 5684 5683 5681 5678 5676 5674 5672 5669 5668 5666 5664 5662 5659
5734 5735 5736 5736 5737 5736 5736 5736 5737 5737 5737 5737 5737 5737 5738 5738 5738 5738 5737 5737 5737 5736 5737 5736 5735 5735 5734 5734 5733 5732 5731 5730 5729 5728 5727 5726 5726 5725 5724 5724 5723 5722 5721 5719 5718 5717 5717 5716 5716 5715 5714 5713 5712 5710 5709 5708 5706 5705 5703 5701 5699 5697 5695 5693 5692 5690 5689 5687 5685 5684 5682 5680 5679 5677 5675 5672 5670 5668 5666 5664 5663 5661 5659 5657 5655
5727 5728 5729 5729 5729 5728 5728 5729 5730 5730 5730 5731 5731 5731 5731 5732 5732 5732 5732 5731 5731 5730 5730 5730 5729 5729 5728 5728 5727 5726 5725 5724 5723 5721 5720 5719 5719 5718 5717 5716 5716 5715 5714 5713 5712 5711 5711 5710 5710 5709 5708 5707 5705 5704 5703 5701 5700 5699 5697 5694 5693 5691 5689 5687 5686 5684 5683 5681 5679 5678 5677 5675 5673 5671 5668 5666 5664 5662 5660 5659 5657 5655 5653 5651 5648
5720 5721 5722 5722 5721 5721 5721 5722 5722 5723 5723 5724 5724 5725 5725 5725 5726 5726 5726 5725 5725 5724 5724 5724 5724 5723 5722 5721 5721 5720 5719 5718 5716 5715 5713 5712 5711 5711 5710 5710 5709 5708 5708 5707 5707 5706 5705 5704 5704 5703 5701 5700 5699 5698 5697 5695 5693 5692 5690 5688 5686 5685 5683 5681 5680 5678 5676 5675 5673 5672 5671 5669 5666 5664 5662 5660 5658 5657 5655 5653 5652 5650 5648 5645 5641
5713 5714 5715 5715 5714 5714 5714 5714 5715 5716 5717 5717 5718 5718 5719 5719 5719 5719 5719 5718 5718 5718 5717 5717 5717 5716 5715 5715 5714 5713 5713 5711 5709 5708 5706 5705 5704 5704 5704 5703 5702 5702 5702 5701 5701 5700 5699 5698 5697 5696 5695 5694 5693 5692 5690 5689 5687 5686 5684 5682 5680 5678 5676 5675 5673 5672 5670 5669 5667 5666 5664 5662 5660 5658 5656 5654 5653 5651 5649 5647 5645 5644 5641 5639 5635
5705 5706 5707 5707 5707 5707 5707 5708 5709 5709 5710 5710 5711 5712 5712 5712 5712 5712 5711 5711 5710 5710 5710 5710 5709 5709 5708 5708 5707 5707 5706 5705 5703 5701 5700 5699 5698 5697 5697 5697 5696 5696 5695 5695 5694 5693 5692 5692 5691 5690 5689 5688 5687 5685 5684 5682 5681 5679 5677 5675 5674 5672 5670 5669 5667 5665 5664 5663 5661 5660 5658 5656 5653 5652 5650 5648 5647 5645 5644 5642 5639 5637 5635 5632 5630
5699 5699 5699 5699 5699 5700 5700 5701 5702 5702 5703 5703 5704 5704 5704 5705 5704 5704 5703 5703 5703 5703 5703 5702 5701 5701 5700 5700 5700 5700 5699 5698 5696 5694 5693 5693 5692 5691 5691 5690 5690 5690 5689 5688 5688 5687 5686 5685 5684 5684 5683 5682 5680 5678 5677 5676 5674 5673 5671 5669 5667 5666 5664 5662 5660 5659 5658 5657 5655 5653 5651 5649 5647 5646 5644 5642 5641 5639 5638 5635 5633 5630 5628 5626 5624
5691 5691 5691 5690 5690 5691 5691 5692 5694 5695 5695 5696 5696 5697 5697 5697 5697 5696 5695 5695 5695 5696 5695 5694 5694 5694 5693 5693 5693 5692 5692 5690 5688 5687 5686 5685 5684 5684 5684 5684 5683 5683 5682 5681 5680 5679 5679 5678 5677 5677 5676 5675 5673 5672 5670 5669 5667 5665 5664 5662 5661 5659 5657 5655 5654 5652 5651 5650 5649 5647 5645 5643 5641 5639 5637 5636 5635 5633 5631 5629 5626 5624 5622 5620 5618
5682 5682 5682 5682 5682 5682 5683 5684 5686 5686 5686 5687 5688 5689 5688 5689 5689 5688 5688 5688 5688 5688 5688 5688 5687 5686 5686 5686 5685 5685 5685 5683 5681 5680 5679 5678 5677 5676 5676 5676 5676 5676 5675 5674 5673 5672 5671 5671 5670 5670 5669 5668 5666 5665 5663 5662 5660 5658 5657 5655 5653 5652 5650 5648 5647 5646 5645 5643 5642 5640 5638 5636 5635 5632 5630 5629 5628 5626 5624 5622 5620 5618 5616 5614 5611
5671 5672 5673 5673 5673 5673 5674 5676 5677 5677 5677 5677 5679 5680 5679 5679 5679 5679 5680 5681 5680 5680 5679 5679 5680 5679 5678 5677 5677 5678 5677 5674 5672 5672 5671 5670 5669 5668 5668 5668 5668 5668 5667 5666 5665 5664 5664 5663 5663 5662 5661 5660 5659 5657 5656 5654 5652 5651 5649 5648 5646 5644 5643 5641 5640 5639 5638 5636 5635 5634 5632 5630 5628 5626 5624 5622 5621 5620 5618 5616 5613 5611 5610 5607 5605
5660 5662 5663 5663 5663 5663 5665 5666 5667 5667 5668 5668 5670 5670 5669 5670 5670 5669 5670 5672 5672 5672 5671 5670 5670 5670 5669 5668 5668 5669 5667 5665 5664 5664 5663 5661 5660 5660 5660 5660 5660 5660 5659 5658 5657 5656 5656 5655 5655 5654 5653 5652 5650 5649 5648 5646 5645 5643 5642 5640 5638 5636 5635 5634 5633 5632 5631 5629 5628 5627 5625 5623 5621 5620 5618 5615 5614 5612 5611 5609 5607 5605 5603 5601 5598
5652 5651 5652 5652 5652 5653 5655 5656 5657 5658 5658 5659 5661 5660 5660 5660 5660 5660 5661 5662 5662 5663 5663 5662 5661 5661 5660 5659 5659 5659 5658 5656 5656 5655 5654 5653 5652 5652 5652 5652 5652 5651 5651 5650 5649 5648 5648 5647 5646 5645 5644 5643 5641 5640 5639 5638 5637 5635 5634 5632 5631 5629 5627 5627 5626 5625 5624 5623 5621 5620 5619 5617 5615 5613 5611 5609 5607 5606 5604 5602 5600 5598 5597 5594 5592
5643 5643 5642 5641 5641 5642 5644 5646 5647 5648 5649 5650 5651 5650 5650 5650 5650 5650 5651 5652 5652 5652 5653 5653 5652 5651 5651 5650 5650 5650 5649 5648 5646 5646 5646 5644 5644 5644 5643 5643 5643 5643 5642 5641 5640 5639 5639 5638 5637 5637 5636 5634 5633 5631 5631 5630 5629 5627 5626 5625 5623 5622 5620 5619 5619 5618 5617 5616 5614 5613 5612 5610 5609 5607 5605 5603 5601 5599 5598 5596 5593 5592 5590 5588 5585
5633 5634 5634 5633 5632 5632 5632 5634 5637 5638 5639 5640 5640 5640 5641 5641 5641 5640 5641 5642 5642 5642 5643 5644 5642 5641 5641 5641 5641 5641 5640 5639 5637 5637 5636 5635 5635 5635 5634 5634 5634 5633 5632 5632 5631 5631 5630 5629 5629 5628 5627 5626 5625 5624 5623 5622 5620 5620 5618 5617 5616 5615 5613 5612 5611 5611 5610 5609 5607 5606 5605 5604 5602 5600 5598 5597 5595 5593 5592 5589 5587 5585 5583 5581 5579
5623 5624 5625 5624 5624 5623 5623 5624 5626 5627 5628 5629 5630 5631 5631 5632 5631 5631 5631 5632 5632 5632 5633 5634 5634 5632 5631 5631 5631 5631 5631 5630 5628 5628 5627 5627 5626 5626 5625 5625 5625 5624 5623 5623 5623 5623 5622 5621 5620 5620 5619 5618 5617 5616 5615 5613 5612 5612 5611 5610 5609 5608 5606 5605 5605 5604 5603 5601 5600 5599 5598 5597 5596 5594 5592 5591 5589 5587 5585 5583 5581 5579 5577 5575 5573
5613 5614 5614 5614 5614 5613 5614 5614 5615 5617 5617 5618 5619 5620 5621 5621 5621 5621 5621 5622 5622 5623 5623 5624 5624 5623 5622 5622 5622 5622 5621 5621 5620 5619 5619 5618 5617 5617 5617 5617 5616 5615 5614 5615 5615 5614 5614 5613 5612 5611 5610 5609 5608 5607 5607 5605 5605 5604 5603 5603 5602 5600 5599 5599 5598 5597 5595 5594 5593 5592 5591 5590 5589 5588 5586 5584 5582 5580 5578 5576 5574 5572 5571 5569 5567
5604 5604 5604 5603 5603 5602 5603 5603 5605 5607 5607 5607 5608 5609 5610 5610 5610 5611 5611 5611 5612 5613 5613 5614 5614 5614 5614 5613 5613 5613 5612 5611 5611 5610 5610 5609 5609 5608 5608 5608 5607 5606 5606 5607 5606 5606 5605 5604 5603 5602 5601 5601 5600 5599 5598 5597 5597 5596 5595 5595 5594 5593 5592 5592 5590 5589 5588 5587 5586 5585 5584 5584 5583 5581 5579 5577 5576 5574 5572 5570 5568 5567 5565 5563 5561
5593 5594 5593 5593 5592 5592 5592 5592 5593 5595 5596 5597 5598 5599 5599 5599 5600 5600 5601 5601 5602 5603 5603 5603 5603 5604 5605 5604 5604 5604 5603 5602 5602 5601 5601 5601 5600 5600 5599 5599 5598 5598 5598 5598 5598 5597 5596 5596 5595 5594 5593 5593 5592 5591 5590 5589 5589 5588 5587 5587 5586 5585 5585 5584 5583 5582 5581 5580 5579 5578 5577 5577 5576 5574 5573 5571 5569 5567 5565 5563 5562 5560 5558 5556 5554
5581 5583 5583 5583 5582 5582 5581 5581 5581 5582 5583 5585 5587 5588 5588 5588 5589 5590 5590 5591 5592 5593 5593 5593 5593 5594 5595 5595 5595 5595 5594 5593 5592 5592 5592 5592 5591 5591 5590 5590 5590 5590 5589 5589 5589 5589 5588 5588 5587 5586 5585 5585 5584 5583 5583 5582 5581 5581 5580 5579 5578 5578 5577 5576 5576 5574 5573 5573 5572 5571 5571 5570 5569 5567 5566 5564 5562 5561 5559 5557 5555 5554 5552 5550 5547
5570 5571 5572 5572 5571 5571 5570 5570 5570 5570 5570 5572 5574 5576 5577 5578 5579 5580 5580 5581 5581 5582 5583 5582 5582 5583 5584 5585 5586 5585 5584 5583 5583 5583 5583 5583 5582 5582 5581 5581 5582 5581 5581 5581 5581 5581 5580 5580 5578 5577 5576 5576 5576 5575 5575 5574 5573 5573 5572 5571 5570 5570 5570 5569 5568 5567 5566 5565 5565 5564 5564 5563 5561 5560 5559 5557 5555 5554 5552 5550 5548 5547 5545 5543 5540
5559 5559 5560 5560 5560 5559 5559 5559 5559 5559 5560 5560 5561 5563 5564 5566 5568 5569 5570 5570 5570 5571 5572 5572 5572 5573 5574 5575 5575 5574 5574 5574 5575 5575 5574 5573 5572 5572 5572 5573 5573 5573 5572 5573 5573 5572 5572 5571 5570 5569 5568 5567 5567 5567 5567 5566 5565 5565 5564 5563 5563 5562 5562 5562 5561 5560 5559 5558 5558 5557 5556 5555 5554 5553 5552 5550 5548 5546 5545 5543 5541 5539 5537 5535 5533
5549 5549 5549 5549 5549 5548 5549 5549 5549 5550 5550 5550 5551 5552 5553 5554 5556 5557 5559 5559 5559 5560 5561 5561 5562 5563 5563 5564 5564 5564 5564 5565 5566 5566 5565 5563 5562 5563 5563 5564 5564 5564 5564 5564 5564 5564 5563 5562 5561 5560 5559 5559 5559 5559 5559 5558 5557 5557 5557 5556 5555 5555 5554 5554 5553 5552 5552 5551 5551 5550 5549 5548 5547 5545 5544 5542 5541 5539 5537 5536 5534 5532 5530 5528 5526
5542 5541 5540 5540 5540 5539 5539 5540 5540 5540 5541 5541 5542 5543 5543 5544 5545 5547 5548 5548 5548 5549 5550 5550 5551 5551 5552 5552 5553 5553 5555 5556 5556 5556 5554 5552 5552 5552 5553 5554 5555 5555 5555 5555 5554 5553 5553 5552 5551 5551 5550 5551 5551 5551 5551 5550 5549 5549 5549 5548 5547 5547 5546 5546 5545 5545 5544 5544 5543 5542 5541 5540 5539 5538 5536 5535 5533 5532 5530 5528 5527 5525 5523 5521 5519
5534 5534 5533 5533 5533 5532 5532 5531 5531 5532 5532 5533 5533 5534 5534 5535 5536 5537 5538 5538 5539 5539 5539 5540 5540 5540 5540 5542 5542 5543 5545 5546 5545 5545 5543 5541 5541 5541 5542 5544 5545 5545 5546 5545 5544 5543 5543 5543 5542 5542 5542 5542 5542 5542 5542 5541 5541 5540 5540 5540 5539 5538 5538 5537 5537 5537 5537 5536 5535 5534 5533 5533 5532 5530 5529 5527 5526 5525 5523 5521 5520 5518 5515 5514 5511
5526 5526 5526 5526 5525 5524 5524 5523 5523 5523 5523 5524 5524 5525 5526 5526 5527 5527 5528 5529 5529 5529 5528 5529 5529 5528 5529 5531 5532 5532 5534 5534 5534 5534 5533 5531 5529 5529 5531 5533 5534 5534 5535 5535 5534 5534 5534 5534 5533 5533 5533 5533 5533 5533 5533 5532 5532 5532 5532 5531 5531 5530 5530 5529 5529 5529 5529 5528 5527 5526 5526 5525 5524 5523 5522 5520 5519 5518 5516 5515 5513 5511 5508 5507 5504
5518 5518 5518 5518 5517 5517 5516 5516 5515 5515 5515 5514 5515 5515 5516 5517 5517 5518 5519 5519 5520 5519 5519 5519 5518 5517 5519 5520 5520 5521 5522 5522 5523 5524 5522 5520 5519 5519 5520 5521 5521 5522 5523 5523 5523 5524 5525 5524 5524 5523 5524 5524 5525 5525 5524 5524 5523 5523 5523 5522 5522 5522 5521 5521 5521 5521 5521 5520 5519 5518 5518 5517 5517 5516 5514 5513 5512 5510 5509 5507 5506 5504 5502 5500 5498
5510 5510 5510 5509 5509 5509 5508 5508 5507 5506 5506 5506 5506 5506 5507 5507 5508 5509 5509 5509 5510 5511 5510 5510 5509 5508 5508 5508 5509 5510 5511 5511 5512 5513 5512 5511 5510 5509 5508 5508 5509 5510 5511 5512 5513 5515 5515 5515 5514 5515 5515 5515 5515 5515 5515 5515 5514 5514 5514 5514 5513 5513 5513 5513 5513 5513 5512 5511 5511 5511 5510 5510 5509 5508 5507 5506 5505 5503 5502 5500 5498 5496 5495 5493 5490
5501 5501 5501 5501 5501 5501 5500 5500 5499 5498 5498 5497 5497 5497 5497 5498 5499 5499 5499 5500 5501 5501 5501 5500 5500 5499 5499 5498 5498 5499 5500 5500 5500 5501 5501 5501 5499 5499 5498 5499 5500 5501 5502 5503 5504 5505 5505 5505 5505 5506 5506 5506 5506 5506 5505 5505 5505 5505 5505 5504 5504 5504 5504 5505 5504 5504 5504 5504 5503 5503 5503 5502 5501 5501 5500 5498 5497 5496 5494 5493 5491 5489 5487 5485 5482
5493 5493 5492 5492 5492 5492 5492 5492 5491 5490 5490 5489 5489 5489 5489 5489 5489 5490 5490 5490 5491 5491 5491 5491 5490 5490 5490 5489 5489 5488 5488 5489 5490 5490 5490 5490 5490 5489 5489 5490 5491 5492 5493 5494 5494 5494 5494 5495 5495 5496 5496 5495 5496 5496 5496 5496 5496 5495 5495 5495 5495 5495 5496 5495 5496 5496 5496 5496 5495 5495 5495 5494 5494 5493 5492 5491 5490 5488 5487 5485 5483 5482 5480 5477 5475
5484 5484 5484 5483 5483 5483 5483 5483 5483 5483 5482 5481 5481 5480 5480 5480 5480 5480 5480 5481 5481 5481 5481 5481 5481 5480 5479 5479 5480 5479 5478 5478 5479 5479 5479 5479 5479 5479 5480 5481 5482 5483 5484 5484 5484 5484 5484 5484 5484 5485 5485 5485 5486 5486 5486 5486 5486 5486 5485 5485 5486 5486 5486 5487 5487 5487 5487 5487 5487 5487 5487 5486 5486 5485 5484 5483 5482 5481 5479 5478 5476 5474 5472 5470 5467
5475 5475 5475 5474 5474 5474 5474 5474 5474 5474 5474 5473 5473 5472 5472 5472 5471 5471 5472 5472 5472 5472 5472 5472 5471 5471 5470 5470 5470 5469 5469 5468 5468 5468 5468 5469 5469 5469 5470 5472 5473 5473 5474 5475 5475 5474 5475 5475 5475 5475 5475 5475 5476 5476 5476 5476 5476 5476 5476 5476 5476 5477 5477 5478 5478 5478 5479 5479 5479 5479 5479 5478 5478 5477 5476 5475 5474 5473 5471 5470 5468 5466 5464 5462 5460
5466 5466 5465 5465 5465 5465 5465 5465 5465 5465 5464 5464 5464 5463 5463 5463 5463 5463 5463 5463 5462 5462 5462 5462 5462 5461 5461 5461 5460 5459 5459 5459 5459 5459 5459 5459 5459 5459 5461 5462 5462 5463 5463 5464 5465 5465 5465 5465 5465 5466 5466 5466 5466 5466 5466 5466 5466 5466 5467 5467 5467 5467 5468 5469 5469 5470 5470 5471 5471 5471 5471 5470 5470 5469 5468 5467 5466 5465 5463 5462 5460 5458 5456 5454 5452
5455 5456 5455 5455 5455 5455 5455 5455 5455 5454 5454 5454 5454 5454 5454 5455 5454 5454 5454 5454 5454 5454 5453 5453 5453 5452 5451 5451 5450 5449 5449 5449 5449 5450 5450 5449 5449 5450 5450 5451 5451 5452 5453 5454 5454 5455 5455 5455 5456 5456 5456 5456 5456 5456 5456 5456 5456 5457 5457 5457 5458 5458 5459 5460 5461 5462 5462 5463 5463 5463 5463 5462 5462 5461 5460 5459 5458 5456 5455 5453 5452 5450 5448 5446 5444
5446 5446 5445 5444 5444 5444 5444 5444 5444 5444 5444 5444 5444 5444 5444 5445 5445 5445 5444 5445 5445 5445 5445 5444 5444 5443 5442 5441 5440 5439 5438 5439 5440 5440 5440 5439 5439 5440 5439 5440 5441 5442 5443 5444 5444 5444 5444 5445 5446 5446 5446 5446 5446 5446 5446 5446 5447 5447 5447 5448 5449 5450 5450 5452 5453 5454 5454 5455 5455 5455 5454 5454 5453 5453 5452 5451 5450 5448 5447 5445 5443 5442 5440 5438 5436
5436 5436 5435 5434 5433 5433 5433 5433 5433 5433 5433 5432 5432 5432 5433 5433 5433 5434 5434 5434 5435 5435 5435 5435 5435 5434 5433 5432 5430 5428 5428 5429 5430 5430 5430 5430 5430 5430 5429 5430 5431 5432 5433 5433 5434 5434 5434 5435 5436 5436 5436 5436 5436 5436 5436 5437 5437 5436 5437 5438 5439 5441 5442 5443 5444 5445 5446 5446 5446 5446 5446 5445 5445 5444 5443 5442 5441 5440 5438 5437 5435 5434 5432 5430 5428
5425 5425 5425 5424 5423 5422 5422 5422 5422 5421 5421 5421 5421 5421 5421 5421 5421 5422 5423 5423 5424 5424 5425 5425 5425 5424 5423 5422 5420 5419 5419 5419 5419 5419 5420 5420 5420 5420 5420 5420 5421 5422 5422 5423 5423 5424 5424 5425 5425 5426 5426 5426 5426 5426 5427 5426 5426 5427 5428 5429 5430 5431 5433 5434 5435 5436 5437 5437 5437 5437 5437 5437 5436 5436 5435 5433 5432 5431 5430 5428 5427 5425 5423 5422 5420
5413 5414 5414 5413 5412 5412 5411 5411 5411 5410 5410 5410 5410 5410 5409 5409 5410 5410 5411 5411 5412 5413 5413 5414 5414 5414 5413 5411 5410 5410 5409 5409 5409 5409 5409 5410 5410 5410 5410 5411 5411 5412 5412 5412 5413 5413 5414 5414 5415 5415 5416 5416 5416 5416 5416 5416 5417 5418 5419 5420 5421 5423 5424 5425 5426 5427 5428 5428 5428 5429 5429 5428 5428 5427 5426 5425 5423 5422 5421 5420 5418 5417 5415 5413 5412
5402 5402 5402 5401 5401 5400 5400 5399 5399 5398 5398 5398 5398 5398 5398 5397 5397 5398 5398 5398 5399 5400 5400 5401 5403 5403 5402 5400 5400 5399 5399 5399 5399 5399 5399 5399 5400 5400 5400 5401 5401 5402 5402 5402 5402 5403 5403 5403 5404 5405 5405 5406 5405 5406 5406 5407 5408 5409 5410 5411 5412 5414 5415 5416 5417 5418 5419 5419 5420 5420 5420 5419 5419 5418 5417 5416 5414 5413 5412 5411 5410 5408 5407 5405 5403
5389 5389 5388 5388 5388 5387 5387 5387 5386 5386 5386 5386 5386 5386 5385 5385 5385 5385 5385 5385 5386 5386 5387 5388 5390 5390 5390 5389 5388 5388 5388 5388 5388 5388 5388 5389 5389 5390 5390 5391 5391 5392 5392 5392 5392 5392 5393 5393 5394 5394 5395 5395 5396 5396 5397 5398 5399 5400 5401 5403 5404 5405 5406 5408 5409 5409 5410 5411 5411 5411 5411 5410 5410 5409 5408 5407 5406 5405 5404 5403 5401 5400 5399 5397 5395
5375 5374 5374 5374 5374 5374 5373 5373 5372 5372 5373 5372 5372 5373 5372 5372 5372 5372 5372 5372 5373 5373 5373 5374 5376 5377 5377 5377 5377 5377 5377 5377 5377 5377 5377 5378 5378 5379 5380 5380 5381 5381 5382 5382 5382 5383 5383 5383 5384 5384 5385 5385 5386 5387 5388 5389 5390 5392 5393 5394 5395 5396 5398 5399 5400 5401 5402 5402 5402 5402 5402 5401 5401 5400 5399 5399 5398 5397 5396 5394 5393 5392 5391 5389 5387
5361 5360 5360 5359 5359 5359 5359 5359 5358 5358 5358 5358 5358 5358 5358 5358 5358 5358 5358 5358 5359 5359 5359 5360 5361 5362 5364 5365 5365 5365 5366 5365 5365 5365 5366 5367 5368 5368 5369 5370 5371 5371 5372 5372 5372 5373 5373 5374 5375 5375 5376 5376 5377 5378 5379 5381 5382 5383 5384 5385 5386 5387 5389 5390 5391 5392 5393 5393 5393 5393 5393 5392 5392 5391 5391 5390 5389 5388 5387 5386 5385 5384 5382 5381 5379
5345 5345 5344 5344 5344 5344 5343 5343 5343 5343 5342 5342 5342 5343 5343 5343 5344 5343 5343 5343 5344 5345 5345 5346 5346 5347 5349 5351 5352 5353 5353 5353 5353 5353 5354 5355 5356 5357 5358 5359 5360 5361 5362 5362 5363 5363 5364 5364 5365 5366 5367 5368 5369 5370 5371 5372 5373 5374 5375 5376 5377 5378 5380 5381 5382 5383 5383 5383 5383 5383 5383 5383 5383 5382 5382 5381 5380 5380 5379 5377 5376 5375 5374 5372 5370
5329 5329 5328 5328 5328 5328 5327 5327 5327 5326 5326 5326 5326 5326 5326 5327 5327 5327 5328 5328 5328 5329 5330 5331 5331 5333 5334 5336 5338 5339 5340 5340 5341 5342 5342 5343 5345 5346 5347 5349 5350 5351 5352 5352 5353 5353 5354 5355 5356 5357 5358 5359 5360 5361 5362 5363 5364 5365 5366 5367 5368 5369 5370 5371 5372 5373 5373 5373 5374 5374 5374 5374 5374 5373 5373 5372 5371 5370 5369 5368 5367 5366 5365 5363 5362
5312 5311 5311 5311 5310 5310 5310 5309 5309 5309 5309 5309 5309 5309 5310 5310 5311 5311 5312 5312 5313 5314 5315 5316 5316 5318 5319 5321 5323 5325 5326 5327 5328 5329 5330 5332 5333 5335 5336 5338 5339 5340 5341 5342 5343 5344 5345 5345 5346 5347 5348 5350 5351 5352 5353 5354 5355 5356 5357 5358 5359 5360 5361 5362 5363 5363 5363 5364 5364 5364 5364 5364 5364 5364 5363 5362 5362 5361 5360 5359 5358 5357 5356 5354 5353
5295 5295 5294 5294 5293 5293 5292 5291 5291 5291 5291 5292 5292 5292 5293 5293 5294 5295 5296 5297 5298 5298 5299 5300 5301 5302 5304 5305 5307 5309 5311 5313 5315 5317 5318 5320 5321 5323 5325 5327 5328 5330 5330 5331 5332 5333 5334 5335 5337 5338 5339 5340 5341 5342 5343 5344 5345 5346 5348 5349 5350 5351 5351 5352 5353 5353 5354 5354 5355 5355 5355 5355 5355 5354 5354 5353 5352 5351 5351 5350 5349 5348 5346 5345 5344
5283 5282 5282 5281 5280 5280 5279 5278 5278 5277 5277 5277 5277 5277 5277 5278 5279 5280 5281 5282 5283 5283 5284 5285 5286 5287 5289 5290 5292 5293 5295 5298 5301 5303 5305 5307 5309 5312 5314 5315 5317 5318 5319 5320 5321 5323 5324 5325 5326 5327 5328 5330 5331 5332 5333 5335 5336 5337 5338 5339 5340 5341 5341 5342 5343 5344 5344 5345 5345 5345 5345 5345 5345 5344 5344 5343 5342 5342 5341 5340 5339 5338 5337 5336 5334